www.pogodaiklimat.ru

Погода и климат >> Архив погоды >> Россия >> Краснодарский край >> Красная Поляна


АРХИВ ПОГОДЫ в Красной Поляне

Время (UTC), дата Ветер
(напр.,м/с)
 
Видим.   Явления Облачность Т
(С)
Тd
(С)
f
(%)
Тe
(С)
Тes
(С)
Комфортность P
(гПа)
Po
(гПа)
Тmin
(С)
Tmax
(С)
R
(мм)
R24
(мм)
S
(см)
21 14.03 штиль 0 15 км 10/10 210 м
[Sc]
+6.2 +5.9 98 +5 +5 1010.8 943.8
00 15.03 штиль 0 10 км 10/10 240 м
[Sc]
+6.1 +6.1 100 +5 +5 1009.7 942.8
03 15.03 штиль 0 16 км 10/10 240 м
[Sc]
+6.0 +6.0 100 +5 +5 1009.6 942.7 +5.3
06 15.03 З 1 20 км 10/8 300 м
[Sc Ac As]
+7.3 +5.9 91 +6 +7 1008.3 941.8
09 15.03 ЮЗ 2 20 км 10/3 1500 м
[Sc Ac As]
+11.9 +6.6 70 +11 +13 1006.5 941.1
12 15.03 З 1 11 км слаб. ливневой дождь 10/10 700 м
[Cb cap]
+9.1 +7.2 88 +8 +8 1007.2 941.2
15 15.03 В 1 1900 м ливневой дождь 10/10 30 м
[Cb cap]
+8.1 +8.1 100 +7 +7 1008.9 942.5 +13.3 8
18 15.03 штиль 0 20 км слаб. ливневой дождь 10/10 1410 м
[Cb cap]
+7.2 +6.8 97 +6 +6 1008.9 942.3
21 15.03 СВ 1 9000 м слаб. ливневой дождь 10/10 1140 м
[Cb cap]
+6.8 +6.8 100 +6 +6 1009.8 943.1
00 16.03 С 1 20 км {ливн. осадки} 10/10 1500 м
[Sc]
+6.2 +4.8 91 +5 +5 1009.1 942.2
03 16.03 штиль 0 20 км 10/10 1500 м
[Sc]
+5.7 +5.7 100 +4 +4 1009.0 942.0 +5.7 11
06 16.03 ЮЗ 1 20 км {ливн. осадки} 10/10 600 м
[Sc]
+7.2 +6.1 93 +6 +6 1007.9 941.4 +5.5
09 16.03 штиль 0 2000 м ливневой дождь 10/10 90 м
[Cb cap]
+6.9 +6.9 100 +6 +6 1008.7 942.1
12 16.03 З 1 5000 м слаб. ливневой дождь 10/10 700 м
[Cb cap]
+6.6 +6.2 97 +5 +5 1009.5 942.7
15 16.03 С 1 8000 м слаб. ливневой дождь 10/10 600 м
[Cb cap]
+4.6 +3.7 94 +3 +3 1011.5 944.1 +8.0 21
18 16.03 В 1 15 км слаб. ливневой дождь 10/10 400 м
[Cb cap]
+2.9 +2.9 100 +1 +1 1013.4 945.5
21 16.03 ЮВ 1 17 км слаб. ливневой дождь 10/10 600 м
[Cb cap]
+2.0 +2.0 100 0 0 1013.5 945.3
00 17.03 штиль 0 12 км слаб. ливневой дождь 10/10 600 м
[Cb cap]
+1.4 +1.4 100 0 0 1011.5 943.3
03 17.03 штиль 0 4300 м слаб. ливневой дождь 10/10 330 м
[Cb cap]
+0.8 +0.8 100 -1 -1 1011.0 942.7 +0.7 14
06 17.03 З 2 3300 м слаб. ливневой снег 10/10 180 м
[Cb cap]
+0.6 +0.6 100 -3 -3 1012.4 943.9 +0.5
09 17.03 штиль 0 1600 м слаб. ливневой снег 10/10 180 м
[Cb cap]
+0.7 +0.7 100 -1 -1 1014.1 945.6
12 17.03 ЮЗ 1 7000 м слаб. ливневой снег 10/10 150 м
[Cb cap]
+1.0 +1.0 100 -1 -1 1015.9 947.3
15 17.03 штиль 0 19 км в посл. час ливневой дождь 10/10 600 м
[Cb cap]
+2.0 +2.0 100 +1 +1 1018.3 949.8 +2.4 14
18 17.03 В 1 2000 м дымка {ливн. осадки} 10/10 210 м
[Sc]
+1.9 +1.9 100 -0 -0 1020.7 952.0
21 17.03 штиль 0 2000 м дымка 10/10 180 м
[Sc]
+1.5 +1.5 100 0 0 1021.4 952.6
00 18.03 штиль 0 2000 м дымка 10/10 60 м
[Sc]
+1.2 +1.2 100 -0 -0 1022.0 953.0
03 18.03 В 1 17 км 6/4 1500 м
[Sc Ac As]
+0.6 +0.6 100 -2 -2 1022.8 953.6 +0.5 2
06 18.03 В 2 20 км 1/1 600 м
[Cu hum]
+3.7 -0.5 74 +1 +5 1023.0 954.6 +0.1
09 18.03 ЮЗ 3 19 км 4/4 600 м
[Cu Sc]
+7.9 -0.3 56 +6 +11 1021.9 954.5
12 18.03 З 2 20 км слаб. ливневой дождь 6/6 1470 м
[Cb cap]
+8.2 +0.2 57 +7 +9 1021.2 953.9
15 18.03 ЮЗ 2 20 км {ливн. осадки} 6/5 600 м
[Cu Sc Ac As]
+5.9 +2.4 78 +4 +4 1022.5 954.6 +11.3 0.0
18 18.03 штиль 0 20 км {ливн. осадки} 9/8 600 м
[Sc Ac cast]
+3.7 +2.4 91 +3 +3 1023.4 955.0
21 18.03 штиль 0 20 км ясно +1.7 +0.8 94 0 0 1024.5 955.5
00 19.03 С 1 3500 м дымка 10/10 60 м
[St]
+0.7 +0.7 100 -2 -2 1025.6 956.3
03 19.03 штиль 0 2600 м дымка 10/10 30 м
[St]
-0.3 -0.3 100 -2 -2 1025.9 956.3 -0.6
06 19.03 штиль 0 4600 м в посл. час туман 10/10 60 м
[St]
+1.0 +1.0 100 -0 -0 1025.8 956.5
09 19.03 ЮЗ 3 20 км 1/1 600 м
[Cu hum]
+8.9 -0.4 52 +7 +16 опасность
простуды
1022.8 955.6
12 19.03 ЮЗ 3 20 км ясно +11.5 +1.7 51 +10 +16 1020.5 954.0
15 19.03 З 1 20 км ясно +9.0 +1.9 61 +9 +9 1020.5 953.5 +12.2
18 19.03 С 1 20 км ясно +5.2 +2.0 80 +4 +4 1022.3 954.3
21 19.03 С 1 20 км ясно +3.3 +2.0 91 +2 +2 1023.0 954.5
00 20.03 В 1 20 км ясно +2.3 +1.4 94 +1 +1 1022.7 954.0
03 20.03 В 1 20 км ясно +2.0 +0.2 88 0 0 1022.4 953.6 +1.8
06 20.03 штиль 0 20 км ясно +6.6 +0.7 66 +6 +13 1020.8 953.0 +1.6
09 20.03 ЮЗ 3 20 км ясно +14.0 -2.0 33 +13 +23 1018.0 952.2
12 20.03 ЮЗ 3 20 км ясно +15.4 -1.6 31 +15 +21 1017.0 951.6
15 20.03 З 2 20 км ясно +12.0 -1.9 38 +11 +12 1018.8 952.5 +15.6
18 20.03 С 1 20 км ясно +6.7 +1.0 67 +6 +6 1022.1 954.4
21 20.03 штиль 0 20 км ясно +4.2 +1.1 80 +3 +3 1023.3 955.0
00 21.03 штиль 0 20 км ясно +2.5 +0.4 86 +1 +1 1024.5 955.7
03 21.03 С 1 20 км ясно +0.9 +0.3 96 -1 -1 1025.6 956.3 +0.9
06 21.03 Ю 1 20 км 9/8 540 м
[Cu hum Ac cuf]
+4.2 +1.6 83 +3 +4 1026.0 957.5 +0.8
09 21.03 З 3 20 км 10/10 800 м
[Sc]
+6.2 +2.3 76 +3 +3 1025.8 957.8
12 21.03 З 2 20 км 10/10 500 м
[Sc]
+5.6 +2.8 82 +3 +3 1026.0 957.8
15 21.03 З 2 20 км 10/10 500 м
[Sc]
+5.1 +2.5 83 +3 +3 1026.1 957.8 +6.5
18 21.03 СЗ 1 20 км {ливн. осадки} 10/10 600 м
[Cb calv]
+4.6 +2.9 89 +3 +3 1026.8 958.4

 

Местоположение метеостанции Красная Поляна (Краснодарский край, Россия): широта 43.68 долгота 40.20 высота над уровнем моря 567 м.

В архиве по умолчанию представлена погода в Красной Поляне за последнюю неделю. Архивные данные за месяц целиком и за предыдущие месяцы, начиная с января 2011 года, Вы можете получить, выбрав интересующий диапазон дат из раскрывающегося списка и нажав кнопку "Ввод!".


*Определитесь, кто Вы:
робот инопланетянин человек

Внимание! Время в таблицах - всемирное. Для получения местного времени необходимо прибавить поправку, которая равна 3 ч.

Смотрите также архив погоды в соседних городах и на ближайших метеорологических станциях:

Погода в Горная Карусель 1500 (Краснодарский край, Россия) (8 км)
Погода в Горная Карусель 1000 (Краснодарский край, Россия) (8 км)
Погода на Кордоне Лаура (Краснодарский край, Россия) (8 км)
Погода в Кепше (Краснодарский край, Россия) (14 км)
Погода в Гузерипле (Адыгея, Россия) (36 км)
Погода в Сочи (Краснодарский край, Россия) (36 км)
Погода в Сочи аэропорт (Адлере) (Краснодарский край, Россия) (37 км)
Погода в Имеретинке (Краснодарский край, Россия) (37 км)
Погода в Солох Ауле (Краснодарский край, Россия) (48 км)
Погода в Кичмае (Краснодарский край, Россия) (58 км)

Пояснения к столбцам:

Ветер - указаны скорость ветра в м/с - средняя за 10 мин, порывы в срок и между сроками (в фигурных скобках) и направление, откуда дует ветер: С - северный, СВ - северо-восточный, В - восточный, ЮВ - юго-восточный, Ю - южный, ЮЗ - юго-западный, З - западный, СЗ - северо-западный.
Видимость - горизонтальная дальность видимости в метрах или километрах. При видимости от 1 до 10 км при отсутствии осадков обычно наблюдается дымка, при ухудшении видимости до 1 км и менее - туман. В сухую погоду видимость может ухудшаться дымом, пылью или мглою.
Явления - указаны атмосферные явления, наблюдавшиеся в срок или в последний час перед сроком; фигурными скобками обозначены явления, наблюдавшиеся между сроками (за 1-3 часа до срока); квадратными скобками обозначены град или гололедные отложения с указанием их диаметра в мм.
Облачность - указаны через наклонную черту общая и нижняя облачность в баллах и высота нижней границы облаков в метрах; квадратными скобками обозначены формы облаков: Ci - перистые, Cs - перисто-слоистые, Cc - перисто-кучевые, Ac - высококучевые, As - высокослоистые, Sc - слоисто-кучевые, Ns - слоисто-дождевые, Cu - кучевые, Cb - кучево-дождевые. Подробнее классификацию облаков см. в Атласе облаков (PDF).
T - Температура воздуха - температура, измеренная на высоте 2 м над землей.
Td - Температура точки росы - температура, при понижении до которой содержащийся в воздухе водяной пар достигнет насыщения.
f - Относительная влажность воздуха - влажноcть воздуха, измеренная на высоте 2 м над землей.
Te - Эффективная температура - температура, которую ощущает одетый по сезону человек в тени. Характеристика душности погоды. При расчете учитывается влияние влажности воздуха и скорости ветра на теплоощущения человека.
Tes - Эффективная температура на солнце - температура, которую ощущает человек, с поправкой на солнечный нагрев. Характеристика знойности погоды. Зависит от высоты солнца над горизонтом, облачности и скорости ветра. Ночью, в пасмурную погоду, а также при ветре 12 м/с и более поправка равна нулю.
P - Атмосферное давление - приведенное к уровню моря атмосферное давление.
Po - Атмосферное давление - измеренное на уровне метеостанции атмосферное давление.
Tmin - Минимальная температура - минимум температуры воздуха на высоте 2 м над землей.
Tmax - Максимальная температура - максимум температуры воздуха на высоте 2 м над землей.
R - Количество осадков - Количество выпавших осадков за период времени, мм. При наведении курсора мыши на число - период времени, за который выпало указанное количество осадков.
R24 - Количество осадков - Количество выпавших осадков за 24 часа, мм.
S - Снежный покров - Высота снежного покрова, см. При наведении курсора мыши на число - состояние снежного покрова и степень покрытия местности в баллах.